COSMOS 1275 DEB, 14358

Orbit data source: Space-Track

COSMOS 1275 DEB, 14358 is space debris in LEO originally from a launch on Thu, 04 Jun 1981 UTC launched from the Plesetsk Missile And Space Complex (PKMTR). Debris objects in space refer to the collection of defunct objects orbiting the Earth. Examples of debris include non-operational satellites, rocket bodies, and fragments generated from explosions, collisions, or faulty payload assembly.

Loading next visibility...
Identifier
14358, 1981-053HR
Orbit
LEO
Country
Flag of CISCIS
Related business
Manufacturer
Unknown
Mission
Spacecraft
Bus & Motor
Unknown
Mass
Unknown
Launch date (UTC)
1981-06-04 (45 years ago)
Launch vehicle
Unknown
Launch site
Plesetsk Missile And Space Complex (PKMTR)
Object type
Payload
Rocket body
Debris
Shape & HBR
Unknown shape, 0.1 m
Radar Cross Section
Small (<0.1 m²)

Expand to show TLE details & history
Last TLE update: 13 hours ago

TLE from 13 hours ago
0 COSMOS 1275 DEB
1 14358U 81053HR  26131.86075674  .00002225  00000-0  10647-2 0  9995
2 14358  82.8050 344.2715 0164025 153.7755 223.4577 14.11911960177865
Epoch: 2026-05-11T20:39Z
TLE epoch observation values (Epoch: 2026-05-11T20:39:29.382Z)
Latitude
15.80941°
Longitude
166.79346°
Altitude
942.127 km
Speed
7.337 km/s
True Right ascension
23h 05m 14s
True Declination
15° 43' 18"
Sunlit
Object was in daylight at epoch
Visualization orbit readout
Latitude
Unknown
Longitude
Unknown
Altitude
Unknown
Speed
Unknown
Apparent Right ascension
Unknown
Apparent Declination
Unknown
Sunlit
N/A
Visualization observer readout
Local Sidereal Time
17:33:22
Azimuth
Unknown
Elevation
Unknown
Doppler factor
Unknown
Orbital elements
Apogee altitude
968.497 km
Perigee altitude
731.38 km
Semi-major axis
7,228.076 km
Eccentricity
0.0164
Inclination
82.805°
RAAN
344.2715°
Arg. of periapsis
153.7755°
True anomaly
222.18396°
Mean anomaly
223.4577°
Eccentric anomaly
222.81894°
Mean motion
3.53191 °/min
Orbital period
101.93 mins
BSTAR
0.0010647
Loading maneuver chart data...
Computing Atmospheric mass density...
Loading historical data...
Loading historical data...
Loading historical data...
Loading historical data...
Loading historical data...
Loading historical data...
Loading historical data...

Documentation

Showing up to 5 results
|